{"data":{"norad_id":67059,"intl_designator":"2025-295A","name":"HULIANWANG DIGUI-119","alt_names":[],"object_type":"PAYLOAD","status":"ACTIVE","operator":null,"country":"PRC","launch_date":"2025-12-11","launch_site_code":"WSC","launch_vehicle":null,"mission":null,"orbit_class":"UNKNOWN","rcs_meters":null,"size_class":null,"mass_kg":null,"dimensions":null,"purposes":[],"wikipedia_slug":null,"has_3d_model":false,"image_url":null,"decayed_at":null,"tle_current":{"epoch":"2026-05-25T03:38:26.243232Z","epoch_age_seconds":59117,"freshness":"FRESH","line1":"1 67059U 25295A   26145.15169263 -.00000083  00000+0  88359-4 0  9999","line2":"2 67059  50.0025 108.3998 0000857 352.6069   7.4790 13.29327429 22430","mean_motion":13.29327429,"eccentricity":8.57e-5,"inclination_deg":50.0025,"raan_deg":108.3998,"arg_perigee_deg":352.6069,"mean_anomaly_deg":7.479,"bstar":8.8359e-5,"rev_number":2243,"period_min":108.32545606038,"perigee_km":1148.656075835,"apogee_km":1149.9462787386,"semimajor_km":7527.4381772868,"source":"CELESTRAK","updated_at":"2026-05-25T13:38:06.700704Z"}}}